Location: Hac?musa Deresi
(39.1694°N, 32.2508°E)
Time: 14:46:33
(UTC+00:00)

USA 245 - Pass Details

Date: 22 April 2026
Orbit: 264 x 994 km, 97.9° (Epoch: 15 October)

Event Time Altitude Azimuth Distance (km) Brightness Sun altitude
Exits shadow 19:28:49 62° 300° (WNW) 820 4.2 -28.9°
Drops below altitude 10° 19:33:34 10° 343° (NNW) 2,396 7.4 -29.5°
Sets 19:36:08 0° 346° (NNW) 3,408 8.3 -29.8°
